Theta_e
332 327 321 318 314 312 310 310 311 313 312 310 312 314 317 318 317 319 320 318 318 318
315 313 310 309 309 307 307 306 305 305 304 304 305 307 310 307 308 310 310 309 310 310
307 306 305 304 302 301 301 301 301 301 300 300 301 302 304 303 303 304 304 303 302 303
300 300 300 299 298 298 298 298 298 298 298 297 297 298 298 298 298 299 298 298 298 297
296 296 296 295 296 296 294 295 295 295 294 294 294 294 294 294 294 294 293 293 294 292
293 293 292 292 293 293 292 292 291 292 291 291 292 291 292 291 291 291 290 290 289 289
290 290 289 289 289 290 290 289 289 289 289 290 289 289 289 289 289 289 288 289 288 287
288 287 286 286 287 287 286 286 286 286 287 288 287 287 287 287 287 286 286 287 286 286
285 284 284 284 284 284 284 284 284 284 284 285 285 287 287 286 285 285 284 284 285 286
283 283 283 283 283 282 282 283 282 282 283 283 284 286 286 285 284 284 284 283 283 283
283 282 282 282 281 281 282 282 282 281 282 282 283 285 285 284 284 284 283 283 283 283
282 281 281 281 281 281 281 281 280 281 281 281 282 284 284 283 283 282 282 282 283 282
281 281 281 280 280 280 281 279 280 279 280 281 281 283 284 283 282 281 281 282 282 282
280 280 280 279 279 279 279 279 279 279 279 279 280 281 283 283 281 281 280 281 280 281
Wind_Speed
12 3 6 9 7 6 6 5 5 6 6 6 6 4 6 5 5 4 4 5 4 3
9 11 10 11 8 6 6 4 6 4 8 7 9 7 7 6 6 6 6 5 4 4
10 10 9 10 10 9 7 8 7 5 9 9 7 6 4 4 5 4 4 4 6 5
11 10 9 8 9 11 8 9 7 5 6 8 6 7 6 5 5 4 5 5 5 7
12 10 8 10 5 8 11 9 8 5 8 7 7 7 6 5 5 5 5 5 5 6
13 11 11 9 6 8 9 9 9 7 7 8 7 6 6 5 5 4 5 5 6 6
12 11 10 10 9 2 10 9 8 9 6 6 7 6 6 5 5 5 5 5 6 6
10 12 10 7 11 9 8 8 8 8 6 7 7 5 5 4 4 4 5 6 6 5
11 10 10 8 8 8 7 8 6 7 7 6 4 8 9 5 4 3 4 4 4 4
10 10 9 8 8 8 7 7 7 5 6 6 4 8 9 7 2 3 3 3 2 2
8 10 8 9 7 8 5 5 5 6 5 5 6 7 6 2 2 1 3 4 4 4
7 9 9 8 6 6 5 5 6 4 4 5 5 4 4 2 2 2 4 3 4 4
5 7 8 7 6 3 5 4 4 5 4 4 4 4 8 6 2 4 3 4 4 8
5 7 6 6 4 4 4 4 4 5 4 3 2 5 10 11 5 5 5 4 5 5
Wind_Direction
212 113 85 98 94 88 86 93 71 60 62 43 13 22 39 37 35 20 12 40 25 338
108 114 115 102 103 102 106 105 98 66 90 51 50 30 52 52 30 39 25 22 359 30
93 95 100 99 91 81 60 75 70 37 66 61 36 44 42 55 19 43 40 25 20 39
92 84 88 100 108 104 94 63 51 57 79 81 66 51 50 56 35 48 53 33 26 33
88 85 72 68 88 87 105 101 92 75 66 68 66 68 62 58 44 51 51 28 22 27
109 103 99 98 60 111 108 101 95 87 84 84 63 57 62 53 43 47 53 36 30 21
103 105 108 95 124 95 91 91 85 80 69 66 71 57 56 43 39 40 48 46 43 37
110 112 99 87 87 77 72 82 74 82 78 66 58 45 40 52 56 40 43 44 37 56
96 98 105 105 108 96 93 85 93 98 99 89 76 57 51 45 56 58 53 44 26 32
113 107 108 98 88 90 91 97 99 91 90 88 75 48 46 24 40 45 51 44 29 27
105 104 106 100 102 102 104 111 114 94 98 99 64 42 26 4 36 54 59 33 33 17
119 118 101 104 111 109 129 101 81 87 99 104 86 68 44 82 67 55 51 35 32 13
94 116 126 120 106 88 71 106 117 114 102 76 122 89 52 46 35 38 23 24 8 13
107 92 100 100 92 118 142 127 113 119 114 122 67 61 47 42 38 25 4 352 353 356